Cooperstown, ND

1:10 AM CDT on March 26, 2017 (GMT -0500)
Cooperstown

Weather History for KS32 - May, 2013

Change the Weather History Date:

Tuesday, May 14, 2013

  Actual Average (KJMS) Record (KJMS)
Temperature  
Mean Temperature 60 °F -  
Max Temperature 75 °F 68 °F 91 °F (1991)
Min Temperature 46 °F 42 °F 19 °F (1907)
Degree Days  
Heating Degree Days 4    
Growing Degree Days 10 (Base 50)    
Moisture  
Dew Point 48 °F    
Average Humidity 63    
Maximum Humidity 100    
Minimum Humidity 31    
Precipitation  
Precipitation 0.00 in - - ()
Sea Level Pressure  
Sea Level Pressure 29.62 in    
Wind  
Wind Speed 15 mph (West)    
Max Wind Speed 44 mph    
Max Gust Speed 55 mph    
Visibility 10 miles    
Events Thunderstorm    
Averages and records for this station are not official NWS values.
T = Trace of Precipitation, MM = Missing Value Source: NWS Daily Summary

Daily Weather History Graph

Daily Weather History Graph

Search for Another Location

Airport or City:

Trip Planner

Search our weather history database for the weather conditions in past years. The results will help you decide how hot, cold, wet, or windy it might be!

Date:

Astronomy

May. 14, 2013 Rise Set
Actual Time 5:56 AM CDT 9:01 PM CDT
Civil Twilight 5:20 AM CDT 9:38 PM CDT
Nautical Twilight 4:33 AM CDT 10:25 PM CDT
Astronomical Twilight 3:35 AM CDT 11:23 PM CDT
Moon 9:38 AM CDT (5/14) 12:10 AM CDT (5/14)
Length of Visible Light 16h 18m
Length of Day
15h 05m
Waxing Crescent, 19% of the Moon is Illuminated
May 14
Waxing Crescent
May 17
First Quarter
May 24
Full
May 31
Last Quarter
Jun 8
New

Hourly Weather History & Observations

Time (CDT) Temp. Windchill Dew Point Humidity Pressure Visibility Wind Dir Wind Speed Gust Speed Precip Events Conditions
12:15 AM 53.6 °F - 39.2 °F 58% 29.62 in 10.0 mi South 5.8 mph - N/A   Clear
12:35 AM 51.8 °F - 39.2 °F 62% 29.62 in 10.0 mi SSE 6.9 mph - N/A   Clear
12:55 AM 51.8 °F - 39.2 °F 62% 29.61 in 10.0 mi South 9.2 mph - N/A   Clear
1:15 AM 53.6 °F - 39.2 °F 58% 29.61 in 10.0 mi South 8.1 mph - N/A   Clear
1:35 AM 51.8 °F - 39.2 °F 62% 29.60 in 10.0 mi South 9.2 mph - N/A   Clear
1:55 AM 55.4 °F - 41.0 °F 58% 29.60 in 10.0 mi South 8.1 mph - N/A   Clear
2:15 AM 50.0 °F - 41.0 °F 71% 29.60 in 10.0 mi SE 4.6 mph - N/A   Clear
2:35 AM 53.6 °F - 41.0 °F 62% 29.59 in 10.0 mi SSE 6.9 mph - N/A   Clear
2:55 AM 53.6 °F - 41.0 °F 62% 29.59 in 10.0 mi ESE 4.6 mph - N/A   Clear
3:15 AM 55.4 °F - 42.8 °F 63% 29.57 in 10.0 mi ESE 4.6 mph - N/A   Clear
3:35 AM 55.4 °F - 42.8 °F 63% 29.59 in 10.0 mi SW 3.5 mph - N/A   Clear
3:55 AM 55.4 °F - 44.6 °F 67% 29.55 in 10.0 mi SE 4.6 mph - N/A   Clear
4:15 AM 53.6 °F - 42.8 °F 67% 29.56 in 10.0 mi SSW 6.9 mph - N/A   Clear
4:35 AM 55.4 °F - 44.6 °F 67% 29.51 in 10.0 mi ESE 9.2 mph - N/A   Clear
4:55 AM 55.4 °F - 44.6 °F 67% 29.50 in 10.0 mi SSE 6.9 mph - N/A   Clear
5:15 AM 57.2 °F - 44.6 °F 63% 29.50 in 10.0 mi Calm Calm - N/A   Clear
5:35 AM 59.0 °F - 44.6 °F 59% 29.65 in 7.0 mi NNW 24.2 mph 33.4 mph N/A Thunderstorm Scattered Clouds
5:55 AM 57.2 °F - 57.2 °F 100% 29.69 in 5.0 mi NNW 29.9 mph 38.0 mph N/A Thunderstorm Mostly Cloudy
6:15 AM 57.2 °F - 57.2 °F 100% 29.71 in 10.0 mi NNW 20.7 mph 36.8 mph N/A Thunderstorm Overcast
6:35 AM 57.2 °F - 57.2 °F 100% 29.59 in 5.0 mi NE 16.1 mph - N/A   Mostly Cloudy
6:55 AM 57.2 °F - 57.2 °F 100% 29.53 in 10.0 mi ESE 18.4 mph - N/A   Scattered Clouds
7:15 AM 57.2 °F - 57.2 °F 100% 29.53 in 10.0 mi ENE 13.8 mph - N/A   Partly Cloudy
7:35 AM 57.2 °F - 57.2 °F 100% 29.55 in 10.0 mi NNE 11.5 mph - N/A   Clear
7:55 AM 59.0 °F - 59.0 °F 100% 29.56 in 10.0 mi North 12.7 mph - N/A   Clear
8:15 AM 59.0 °F - 59.0 °F 100% 29.56 in 10.0 mi NNE 11.5 mph - N/A   Clear
8:35 AM 60.8 °F - 60.8 °F 100% 29.57 in 10.0 mi NNE 8.1 mph - N/A   Clear
8:55 AM 62.6 °F - 60.8 °F 94% 29.56 in 10.0 mi East 6.9 mph - N/A   Clear
9:15 AM 64.4 °F - 60.8 °F 88% 29.56 in 10.0 mi East 5.8 mph - N/A   Clear
9:35 AM 66.2 °F - 62.6 °F 88% 29.55 in 10.0 mi SE 10.4 mph - N/A   Clear
9:55 AM 66.2 °F - 62.6 °F 88% 29.55 in 10.0 mi SSE 12.7 mph - N/A   Clear
10:15 AM 68.0 °F - 62.6 °F 83% 29.55 in 10.0 mi South 11.5 mph 16.1 mph N/A   Clear
10:35 AM 68.0 °F - 62.6 °F 83% 29.55 in 10.0 mi SSW 13.8 mph - N/A   Clear
10:55 AM 71.6 °F - 62.6 °F 73% 29.56 in 10.0 mi SW 16.1 mph 20.7 mph N/A   Clear
11:15 AM 73.4 °F - 62.6 °F 69% 29.57 in 10.0 mi WSW 17.3 mph 21.9 mph N/A   Clear
11:35 AM 75.2 °F - 59.0 °F 57% 29.57 in 10.0 mi West 23.0 mph 33.4 mph N/A   Scattered Clouds
11:55 AM 73.4 °F - 62.6 °F 69% 29.57 in 10.0 mi West 36.8 mph 43.7 mph N/A   Scattered Clouds
12:15 PM 73.4 °F - 59.0 °F 61% 29.57 in 10.0 mi West 32.2 mph 39.1 mph N/A   Clear
12:35 PM 73.4 °F - 48.2 °F 41% 29.57 in 10.0 mi WNW 28.8 mph 40.3 mph N/A   Clear
12:55 PM 73.4 °F - 46.4 °F 38% 29.57 in 10.0 mi WNW 34.5 mph 42.6 mph N/A   Clear
1:15 PM 73.4 °F - 44.6 °F 36% 29.57 in 10.0 mi WNW 32.2 mph 42.6 mph N/A   Clear
1:35 PM 73.4 °F - 41.0 °F 31% 29.57 in 10.0 mi West 35.7 mph 47.2 mph N/A   Clear
1:55 PM 73.4 °F - 41.0 °F 31% 29.56 in 10.0 mi WNW 33.4 mph 42.6 mph N/A   Clear
2:15 PM 73.4 °F - 41.0 °F 31% 29.56 in 10.0 mi WNW 38.0 mph 48.3 mph N/A   Clear
2:35 PM 73.4 °F - 41.0 °F 31% 29.57 in 10.0 mi West 43.7 mph 54.1 mph N/A   Clear
2:55 PM 73.4 °F - 41.0 °F 31% 29.57 in 10.0 mi WNW 42.6 mph 51.8 mph N/A   Clear
3:15 PM 73.4 °F - 42.8 °F 33% 29.57 in 10.0 mi WNW 35.7 mph 51.8 mph N/A   Clear
3:35 PM 73.4 °F - 44.6 °F 36% 29.59 in 10.0 mi WNW 38.0 mph 50.6 mph N/A   Clear
3:55 PM 71.6 °F - 44.6 °F 38% 29.59 in 10.0 mi WNW 40.3 mph 50.6 mph N/A   Clear
4:15 PM 71.6 °F - 44.6 °F 38% 29.60 in 10.0 mi NW 43.7 mph 51.8 mph N/A   Clear
4:35 PM 71.6 °F - 44.6 °F 38% 29.61 in 10.0 mi NW 39.1 mph 49.5 mph N/A   Clear
4:55 PM 71.6 °F - 44.6 °F 38% 29.62 in 10.0 mi NW 40.3 mph 55.2 mph N/A   Clear
5:15 PM 69.8 °F - 44.6 °F 40% 29.64 in 10.0 mi NW 40.3 mph 49.5 mph N/A   Partly Cloudy
5:35 PM 66.2 °F - 44.6 °F 46% 29.67 in 10.0 mi NNW 33.4 mph 47.2 mph N/A   Partly Cloudy
5:55 PM 66.2 °F - 44.6 °F 46% 29.68 in 10.0 mi NNW 38.0 mph 48.3 mph N/A   Clear
6:15 PM 66.2 °F - 42.8 °F 43% 29.68 in 10.0 mi NNW 32.2 mph 55.2 mph N/A   Clear
6:35 PM 66.2 °F - 42.8 °F 43% 29.69 in 10.0 mi NNW 33.4 mph 42.6 mph N/A   Clear
6:55 PM 66.2 °F - 42.8 °F 43% 29.70 in 10.0 mi NNW 28.8 mph 39.1 mph N/A   Clear
7:15 PM 66.2 °F - 42.8 °F 43% 29.71 in 10.0 mi NNW 28.8 mph 36.8 mph N/A   Clear
7:35 PM 66.2 °F - 42.8 °F 43% 29.72 in 10.0 mi NNW 25.3 mph 34.5 mph N/A   Clear
7:55 PM 66.2 °F - 42.8 °F 43% 29.72 in 10.0 mi NNW 23.0 mph 27.6 mph N/A   Clear
8:15 PM 64.4 °F - 44.6 °F 49% 29.73 in 10.0 mi NNW 15.0 mph - N/A   Clear
8:35 PM 62.6 °F - 44.6 °F 52% 29.73 in 10.0 mi NNW 9.2 mph - N/A   Clear
8:55 PM 62.6 °F - 46.4 °F 55% 29.74 in 10.0 mi NNW 8.1 mph - N/A   Clear
9:15 PM 59.0 °F - 44.6 °F 59% 29.75 in 10.0 mi NNW 5.8 mph - N/A   Clear
9:35 PM 53.6 °F - 42.8 °F 67% 29.76 in 10.0 mi West 4.6 mph - N/A   Clear
9:55 PM 53.6 °F - 44.6 °F 72% 29.77 in 10.0 mi SW 6.9 mph - N/A   Clear
10:15 PM 51.8 °F - 44.6 °F 76% 29.77 in 10.0 mi WSW 4.6 mph - N/A   Clear
10:35 PM 48.2 °F - 44.6 °F 87% 29.78 in 10.0 mi WSW 4.6 mph - N/A   Clear
10:55 PM 48.2 °F - 44.6 °F 87% 29.79 in 10.0 mi SW 3.5 mph - N/A   Clear
11:15 PM 48.2 °F - 44.6 °F 87% 29.79 in 10.0 mi WSW 5.8 mph - N/A   Clear
11:35 PM 46.4 °F 41.9 °F 42.8 °F 87% 29.79 in 10.0 mi WSW 9.2 mph - N/A   Clear
11:55 PM 48.2 °F - 44.6 °F 87% 29.79 in 10.0 mi WSW 5.8 mph - N/A   Clear